contact:dominique.lefevre@mio.osupytheas.fr, maurice.libes@osupytheas.fr, didier.mallarino@osupytheas.fr
Project:EMSO http://www.emso-fr.org/EMSO-France
Depth: 2436.0 m
Title:EMSO Ligure Ouest : Data MII capteur MICROCAT
DateTime_Computer,Latitude,Longitude,Temperature,Conductivity,Pressure,DateTime_Instrument
DateTime_Computer,Latitude,Longitude,degC,S m-1,dbar,DateTime_Instrument
2017-09-30T00:00:11Z,42.805,6.029,13.2933,4.59961,2471.889,2017-9-30T02:01:34Z
2017-09-30T00:01:46Z,42.805,6.029,13.2946,4.59975,2471.874,2017-9-30T02:03:09Z
2017-09-30T00:03:21Z,42.805,6.029,13.2947,4.59974,2471.866,2017-9-30T02:04:44Z
2017-09-30T00:04:55Z,42.805,6.029,13.2935,4.59963,2471.852,2017-9-30T02:06:19Z
2017-09-30T00:06:30Z,42.805,6.029,13.2936,4.59961,2471.889,2017-9-30T02:07:54Z
2017-09-30T00:08:05Z,42.805,6.029,13.2933,4.59961,2471.889,2017-9-30T02:09:28Z
2017-09-30T00:09:40Z,42.805,6.029,13.2935,4.59962,2471.912,2017-9-30T02:11:03Z
2017-09-30T00:11:15Z,42.805,6.029,13.2939,4.59961,2471.912,2017-9-30T02:12:38Z
2017-09-30T00:12:50Z,42.805,6.029,13.2934,4.59964,2471.889,2017-9-30T02:14:13Z
2017-09-30T00:14:24Z,42.805,6.029,13.2953,4.59978,2471.889,2017-9-30T02:15:48Z
2017-09-30T00:15:59Z,42.805,6.029,13.2936,4.59967,2471.874,2017-9-30T02:17:23Z
2017-09-30T00:17:34Z,42.805,6.029,13.2933,4.59963,2471.897,2017-9-30T02:18:57Z
2017-09-30T00:19:09Z,42.805,6.029,13.2934,4.59962,2471.912,2017-9-30T02:20:32Z
2017-09-30T00:20:44Z,42.805,6.029,13.2939,4.59964,2471.919,2017-9-30T02:22:07Z
2017-09-30T00:22:19Z,42.805,6.029,13.2934,4.59963,2471.889,2017-9-30T02:23:42Z
2017-09-30T00:23:53Z,42.805,6.029,13.2936,4.59961,2471.866,2017-9-30T02:25:17Z
2017-09-30T00:25:28Z,42.805,6.029,13.2936,4.59962,2471.874,2017-9-30T02:26:52Z
2017-09-30T00:27:03Z,42.805,6.029,13.2940,4.59968,2471.889,2017-9-30T02:28:26Z
2017-09-30T00:28:38Z,42.805,6.029,13.2941,4.59963,2471.912,2017-9-30T02:30:01Z
2017-09-30T00:30:13Z,42.805,6.029,13.2937,4.59961,2471.874,2017-9-30T02:31:36Z
2017-09-30T00:31:48Z,42.805,6.029,13.2940,4.59982,2471.874,2017-9-30T02:33:11Z
2017-09-30T00:33:22Z,42.805,6.029,13.2947,4.59981,2471.912,2017-9-30T02:34:46Z
2017-09-30T00:34:57Z,42.805,6.029,13.2946,4.59977,2471.889,2017-9-30T02:36:21Z
2017-09-30T00:36:32Z,42.805,6.029,13.2939,4.59963,2471.897,2017-9-30T02:37:55Z
2017-09-30T00:38:07Z,42.805,6.029,13.2943,4.59962,2471.889,2017-9-30T02:39:30Z
2017-09-30T00:39:42Z,42.805,6.029,13.2939,4.59961,2471.912,2017-9-30T02:41:05Z
2017-09-30T00:41:17Z,42.805,6.029,13.2940,4.59961,2471.897,2017-9-30T02:42:40Z
2017-09-30T00:42:51Z,42.805,6.029,13.2939,4.59964,2471.897,2017-9-30T02:44:15Z
2017-09-30T00:44:26Z,42.805,6.029,13.2935,4.59962,2471.889,2017-9-30T02:45:50Z
2017-09-30T00:46:01Z,42.805,6.029,13.2938,4.59963,2471.874,2017-9-30T02:47:24Z
2017-09-30T00:47:36Z,42.805,6.029,13.2940,4.59962,2471.912,2017-9-30T02:48:59Z
2017-09-30T00:49:11Z,42.805,6.029,13.2933,4.59961,2471.912,2017-9-30T02:50:34Z
2017-09-30T00:50:46Z,42.805,6.029,13.2940,4.59961,2471.912,2017-9-30T02:52:09Z
2017-09-30T00:52:20Z,42.805,6.029,13.2935,4.59963,2471.889,2017-9-30T02:53:44Z
2017-09-30T00:53:55Z,42.805,6.029,13.2945,4.59967,2471.889,2017-9-30T02:55:19Z
2017-09-30T00:55:30Z,42.805,6.029,13.2950,4.59989,2471.912,2017-9-30T02:56:53Z
2017-09-30T00:57:05Z,42.805,6.029,13.2952,4.59986,2471.912,2017-9-30T02:58:28Z
2017-09-30T00:58:40Z,42.805,6.029,13.2938,4.59967,2471.912,2017-9-30T03:00:03Z
2017-09-30T01:00:15Z,42.805,6.029,13.2951,4.60004,2471.889,2017-9-30T03:01:38Z
2017-09-30T01:01:49Z,42.805,6.029,13.2954,4.59972,2471.897,2017-9-30T03:03:13Z
2017-09-30T01:03:24Z,42.805,6.029,13.2945,4.59974,2471.889,2017-9-30T03:04:48Z
2017-09-30T01:04:59Z,42.805,6.029,13.2942,4.59980,2471.889,2017-9-30T03:06:22Z
2017-09-30T01:06:34Z,42.805,6.029,13.2939,4.59974,2471.874,2017-9-30T03:07:57Z
2017-09-30T01:08:09Z,42.805,6.029,13.2941,4.59964,2471.889,2017-9-30T03:09:32Z
2017-09-30T01:09:44Z,42.805,6.029,13.2940,4.59974,2471.889,2017-9-30T03:11:07Z
2017-09-30T01:11:18Z,42.805,6.029,13.2939,4.59979,2471.912,2017-9-30T03:12:42Z
2017-09-30T01:12:53Z,42.805,6.029,13.2941,4.59966,2471.897,2017-9-30T03:14:17Z
2017-09-30T01:14:28Z,42.805,6.029,13.2938,4.59963,2471.874,2017-9-30T03:15:51Z
2017-09-30T01:16:03Z,42.805,6.029,13.2943,4.59972,2471.912,2017-9-30T03:17:26Z
2017-09-30T01:17:38Z,42.805,6.029,13.2940,4.59983,2471.852,2017-9-30T03:19:01Z
2017-09-30T01:19:13Z,42.805,6.029,13.2935,4.59964,2471.912,2017-9-30T03:20:36Z
2017-09-30T01:20:47Z,42.805,6.029,13.2941,4.59972,2471.912,2017-9-30T03:22:11Z
2017-09-30T01:22:22Z,42.805,6.029,13.2936,4.59966,2471.897,2017-9-30T03:23:46Z
2017-09-30T01:23:57Z,42.805,6.029,13.2943,4.59967,2471.912,2017-9-30T03:25:20Z
2017-09-30T01:25:32Z,42.805,6.029,13.2939,4.59964,2471.866,2017-9-30T03:26:55Z
2017-09-30T01:27:07Z,42.805,6.029,13.2950,4.59981,2471.874,2017-9-30T03:28:30Z
2017-09-30T01:28:42Z,42.805,6.029,13.2952,4.59989,2471.866,2017-9-30T03:30:05Z
2017-09-30T01:30:17Z,42.805,6.029,13.2958,4.60006,2471.889,2017-9-30T03:31:40Z
2017-09-30T01:31:51Z,42.805,6.029,13.2950,4.60038,2471.889,2017-9-30T03:33:15Z
2017-09-30T01:33:26Z,42.805,6.029,13.2953,4.60021,2471.897,2017-9-30T03:34:50Z
2017-09-30T01:35:01Z,42.805,6.029,13.2944,4.59992,2471.912,2017-9-30T03:36:24Z
2017-09-30T01:36:36Z,42.805,6.029,13.2951,4.59983,2471.912,2017-9-30T03:37:59Z
2017-09-30T01:38:11Z,42.805,6.029,13.2937,4.59973,2471.897,2017-9-30T03:39:34Z
2017-09-30T01:39:46Z,42.805,6.029,13.2952,4.59989,2471.874,2017-9-30T03:41:09Z
2017-09-30T01:41:20Z,42.805,6.029,13.2948,4.59994,2471.934,2017-9-30T03:42:44Z
2017-09-30T01:42:55Z,42.805,6.029,13.2948,4.59982,2471.912,2017-9-30T03:44:19Z
2017-09-30T01:44:30Z,42.805,6.029,13.2947,4.59990,2471.897,2017-9-30T03:45:53Z
2017-09-30T01:46:05Z,42.805,6.029,13.2957,4.59993,2471.919,2017-9-30T03:47:28Z
2017-09-30T01:47:40Z,42.805,6.029,13.2954,4.60005,2471.889,2017-9-30T03:49:03Z
2017-09-30T01:49:15Z,42.805,6.029,13.2950,4.60010,2471.912,2017-9-30T03:50:38Z
2017-09-30T01:50:49Z,42.805,6.029,13.2949,4.60015,2471.889,2017-9-30T03:52:13Z
2017-09-30T01:52:24Z,42.805,6.029,13.2949,4.60015,2471.889,2017-9-30T03:53:48Z
2017-09-30T01:53:59Z,42.805,6.029,13.2945,4.59991,2471.897,2017-9-30T03:55:22Z
2017-09-30T01:55:34Z,42.805,6.029,13.2945,4.59987,2471.897,2017-9-30T03:56:57Z
2017-09-30T01:57:09Z,42.805,6.029,13.2949,4.59977,2471.889,2017-9-30T03:58:32Z
2017-09-30T01:58:44Z,42.805,6.029,13.2950,4.59990,2471.889,2017-9-30T04:00:07Z
2017-09-30T02:00:18Z,42.805,6.029,13.2948,4.59987,2471.912,2017-9-30T04:01:42Z
2017-09-30T02:01:53Z,42.805,6.029,13.2953,4.59982,2471.897,2017-9-30T04:03:17Z
2017-09-30T02:03:28Z,42.805,6.029,13.2948,4.59992,2471.866,2017-9-30T04:04:51Z
2017-09-30T02:05:03Z,42.805,6.029,13.2950,4.59996,2471.912,2017-9-30T04:06:26Z
2017-09-30T02:06:38Z,42.805,6.029,13.2957,4.59988,2471.912,2017-9-30T04:08:01Z
2017-09-30T02:08:13Z,42.805,6.029,13.2950,4.59988,2471.874,2017-9-30T04:09:36Z
2017-09-30T02:09:47Z,42.805,6.029,13.2945,4.59986,2471.889,2017-9-30T04:11:11Z
2017-09-30T02:11:22Z,42.805,6.029,13.2940,4.59977,2471.889,2017-9-30T04:12:46Z
2017-09-30T02:12:57Z,42.805,6.029,13.2942,4.59988,2471.889,2017-9-30T04:14:20Z
2017-09-30T02:14:32Z,42.805,6.029,13.2945,4.59985,2471.889,2017-9-30T04:15:55Z
2017-09-30T02:16:07Z,42.805,6.029,13.2950,4.59982,2471.897,2017-9-30T04:17:30Z
2017-09-30T02:17:42Z,42.805,6.029,13.2948,4.59979,2471.912,2017-9-30T04:19:05Z
2017-09-30T02:19:16Z,42.805,6.029,13.2949,4.59988,2471.934,2017-9-30T04:20:40Z
2017-09-30T02:20:51Z,42.805,6.029,13.2949,4.59979,2471.897,2017-9-30T04:22:15Z
2017-09-30T02:22:26Z,42.805,6.029,13.2948,4.59980,2471.897,2017-9-30T04:23:49Z
2017-09-30T02:24:01Z,42.805,6.029,13.2946,4.59980,2471.912,2017-9-30T04:25:24Z
2017-09-30T02:25:36Z,42.805,6.029,13.2944,4.59980,2471.874,2017-9-30T04:26:59Z
2017-09-30T02:27:11Z,42.805,6.029,13.2950,4.59974,2471.912,2017-9-30T04:28:34Z
2017-09-30T02:28:45Z,42.805,6.029,13.2948,4.59980,2471.912,2017-9-30T04:30:09Z
2017-09-30T02:30:20Z,42.805,6.029,13.2951,4.59978,2471.874,2017-9-30T04:31:44Z
2017-09-30T02:31:55Z,42.805,6.029,13.2951,4.59979,2471.912,2017-9-30T04:33:18Z
2017-09-30T02:33:30Z,42.805,6.029,13.2945,4.59980,2471.874,2017-9-30T04:34:53Z
2017-09-30T02:35:05Z,42.805,6.029,13.2943,4.59975,2471.912,2017-9-30T04:36:28Z
2017-09-30T02:36:40Z,42.805,6.029,13.2943,4.59980,2471.912,2017-9-30T04:38:03Z
2017-09-30T02:38:14Z,42.805,6.029,13.2946,4.59990,2471.889,2017-9-30T04:39:38Z
2017-09-30T02:39:49Z,42.805,6.029,13.2944,4.59986,2471.912,2017-9-30T04:41:13Z
2017-09-30T02:41:24Z,42.805,6.029,13.2948,4.59984,2471.912,2017-9-30T04:42:47Z
2017-09-30T02:42:59Z,42.805,6.029,13.2948,4.59987,2471.889,2017-9-30T04:44:22Z
2017-09-30T02:44:34Z,42.805,6.029,13.2943,4.59978,2471.912,2017-9-30T04:45:57Z
2017-09-30T02:46:09Z,42.805,6.029,13.2948,4.59980,2471.889,2017-9-30T04:47:32Z
2017-09-30T02:47:43Z,42.805,6.029,13.2949,4.59979,2471.934,2017-9-30T04:49:07Z
2017-09-30T02:49:18Z,42.805,6.029,13.2950,4.59985,2471.874,2017-9-30T04:50:42Z
2017-09-30T02:50:53Z,42.805,6.029,13.2941,4.59987,2471.934,2017-9-30T04:52:17Z
2017-09-30T02:52:28Z,42.805,6.029,13.2944,4.59981,2471.912,2017-9-30T04:53:51Z
2017-09-30T02:54:03Z,42.805,6.029,13.2940,4.59987,2471.889,2017-9-30T04:55:26Z
2017-09-30T02:55:38Z,42.805,6.029,13.2946,4.59976,2471.912,2017-9-30T04:57:01Z
2017-09-30T02:57:13Z,42.805,6.029,13.2945,4.59976,2471.912,2017-9-30T04:58:36Z
2017-09-30T02:58:47Z,42.805,6.029,13.2950,4.59983,2471.912,2017-9-30T05:00:11Z
2017-09-30T03:00:22Z,42.805,6.029,13.2948,4.59978,2471.897,2017-9-30T05:01:46Z
2017-09-30T03:01:57Z,42.805,6.029,13.2948,4.59992,2471.957,2017-9-30T05:03:20Z
2017-09-30T03:03:32Z,42.805,6.029,13.2942,4.59981,2471.912,2017-9-30T05:04:55Z
2017-09-30T03:05:07Z,42.805,6.029,13.2945,4.59988,2471.934,2017-9-30T05:06:30Z
2017-09-30T03:06:41Z,42.805,6.029,13.2949,4.59983,2471.912,2017-9-30T05:08:05Z
2017-09-30T03:08:16Z,42.805,6.029,13.2945,4.59988,2471.934,2017-9-30T05:09:40Z
2017-09-30T03:09:51Z,42.805,6.029,13.2951,4.59990,2471.934,2017-9-30T05:11:14Z
2017-09-30T03:11:26Z,42.805,6.029,13.2948,4.59985,2471.912,2017-9-30T05:12:49Z
2017-09-30T03:13:01Z,42.805,6.029,13.2939,4.59983,2471.897,2017-9-30T05:14:24Z
2017-09-30T03:14:36Z,42.805,6.029,13.2943,4.59981,2471.912,2017-9-30T05:15:59Z
2017-09-30T03:16:11Z,42.805,6.029,13.2943,4.59990,2471.889,2017-9-30T05:17:34Z
2017-09-30T03:17:45Z,42.805,6.029,13.2947,4.59984,2471.934,2017-9-30T05:19:09Z
2017-09-30T03:19:20Z,42.805,6.029,13.2943,4.59986,2471.874,2017-9-30T05:20:44Z
2017-09-30T03:20:55Z,42.805,6.029,13.2948,4.59984,2471.874,2017-9-30T05:22:18Z
2017-09-30T03:22:30Z,42.805,6.029,13.2947,4.59989,2471.934,2017-9-30T05:23:53Z
2017-09-30T03:24:05Z,42.805,6.029,13.2948,4.59983,2471.912,2017-9-30T05:25:28Z
2017-09-30T03:25:40Z,42.805,6.029,13.2952,4.59997,2471.912,2017-9-30T05:27:03Z
2017-09-30T03:27:14Z,42.805,6.029,13.2954,4.59987,2471.934,2017-9-30T05:28:38Z
2017-09-30T03:28:49Z,42.805,6.029,13.2946,4.59983,2471.912,2017-9-30T05:30:13Z
2017-09-30T03:30:24Z,42.805,6.029,13.2943,4.59984,2471.934,2017-9-30T05:31:47Z
2017-09-30T03:31:59Z,42.805,6.029,13.2945,4.59984,2471.897,2017-9-30T05:33:22Z
2017-09-30T03:33:34Z,42.805,6.029,13.2947,4.59987,2471.897,2017-9-30T05:34:57Z
2017-09-30T03:35:09Z,42.805,6.029,13.2945,4.59986,2471.912,2017-9-30T05:36:32Z
2017-09-30T03:36:43Z,42.805,6.029,13.2950,4.59988,2471.912,2017-9-30T05:38:07Z
2017-09-30T03:38:18Z,42.805,6.029,13.2947,4.59984,2471.912,2017-9-30T05:39:42Z
2017-09-30T03:39:53Z,42.805,6.029,13.2951,4.59984,2471.889,2017-9-30T05:41:16Z
2017-09-30T03:41:28Z,42.805,6.029,13.2946,4.59988,2471.934,2017-9-30T05:42:51Z
2017-09-30T03:43:03Z,42.805,6.029,13.2951,4.59992,2471.934,2017-9-30T05:44:26Z
2017-09-30T03:44:38Z,42.805,6.029,13.2955,4.59998,2471.912,2017-9-30T05:46:01Z
2017-09-30T03:46:12Z,42.805,6.029,13.2950,4.60008,2471.912,2017-9-30T05:47:36Z
2017-09-30T03:47:47Z,42.805,6.029,13.2948,4.59984,2471.912,2017-9-30T05:49:11Z
2017-09-30T03:49:22Z,42.805,6.029,13.2951,4.59990,2471.934,2017-9-30T05:50:45Z
2017-09-30T03:50:57Z,42.805,6.029,13.2947,4.59993,2471.912,2017-9-30T05:52:20Z
2017-09-30T03:52:32Z,42.805,6.029,13.2951,4.59988,2471.934,2017-9-30T05:53:55Z
2017-09-30T03:54:07Z,42.805,6.029,13.2956,4.59994,2471.889,2017-9-30T05:55:30Z
2017-09-30T03:55:41Z,42.805,6.029,13.2950,4.59987,2471.897,2017-9-30T05:57:05Z
2017-09-30T03:57:16Z,42.805,6.029,13.2955,4.59995,2471.874,2017-9-30T05:58:40Z
2017-09-30T03:58:51Z,42.805,6.029,13.2953,4.59995,2471.912,2017-9-30T06:00:14Z
2017-09-30T04:00:26Z,42.805,6.029,13.2944,4.59987,2471.889,2017-9-30T06:01:49Z
2017-09-30T04:02:01Z,42.805,6.029,13.2948,4.59990,2471.934,2017-9-30T06:03:24Z
2017-09-30T04:03:36Z,42.805,6.029,13.2956,4.59993,2471.912,2017-9-30T06:04:59Z
2017-09-30T04:05:10Z,42.805,6.029,13.2946,4.59985,2471.889,2017-9-30T06:06:34Z
2017-09-30T04:06:45Z,42.805,6.029,13.2949,4.59983,2471.897,2017-9-30T06:08:09Z
2017-09-30T04:08:20Z,42.805,6.029,13.2944,4.59986,2471.897,2017-9-30T06:09:43Z
2017-09-30T04:09:55Z,42.805,6.029,13.2948,4.59988,2471.897,2017-9-30T06:11:18Z
2017-09-30T04:11:30Z,42.805,6.029,13.2948,4.59990,2471.889,2017-9-30T06:12:53Z
2017-09-30T04:13:05Z,42.805,6.029,13.2943,4.59988,2471.912,2017-9-30T06:14:28Z
2017-09-30T04:14:39Z,42.805,6.029,13.2946,4.59993,2471.912,2017-9-30T06:16:03Z
2017-09-30T04:16:14Z,42.805,6.029,13.2955,4.60000,2471.897,2017-9-30T06:17:38Z
2017-09-30T04:17:49Z,42.805,6.029,13.2951,4.60001,2471.934,2017-9-30T06:19:12Z
2017-09-30T04:19:24Z,42.805,6.029,13.2951,4.60001,2471.957,2017-9-30T06:20:47Z
2017-09-30T04:20:59Z,42.805,6.029,13.2948,4.59984,2471.934,2017-9-30T06:22:22Z
2017-09-30T04:22:34Z,42.805,6.029,13.2951,4.59981,2471.889,2017-9-30T06:23:57Z
2017-09-30T04:24:08Z,42.805,6.029,13.2945,4.59990,2471.912,2017-9-30T06:25:32Z
2017-09-30T04:25:43Z,42.805,6.029,13.2945,4.59994,2471.912,2017-9-30T06:27:07Z
2017-09-30T04:27:18Z,42.805,6.029,13.2951,4.60000,2471.912,2017-9-30T06:28:41Z
2017-09-30T04:28:53Z,42.805,6.029,13.2950,4.60003,2471.874,2017-9-30T06:30:16Z
2017-09-30T04:30:28Z,42.805,6.029,13.2951,4.60000,2471.889,2017-9-30T06:31:51Z
2017-09-30T04:32:03Z,42.805,6.029,13.2950,4.59989,2471.897,2017-9-30T06:33:26Z
2017-09-30T04:33:37Z,42.805,6.029,13.2951,4.59990,2471.912,2017-9-30T06:35:01Z
2017-09-30T04:35:12Z,42.805,6.029,13.2948,4.59993,2471.889,2017-9-30T06:36:36Z
2017-09-30T04:36:47Z,42.805,6.029,13.2948,4.59998,2471.897,2017-9-30T06:38:10Z
2017-09-30T04:38:22Z,42.805,6.029,13.2948,4.60006,2471.897,2017-9-30T06:39:45Z
2017-09-30T04:39:57Z,42.805,6.029,13.2953,4.60018,2471.912,2017-9-30T06:41:20Z
2017-09-30T04:41:32Z,42.805,6.029,13.2950,4.60011,2471.889,2017-9-30T06:42:55Z
2017-09-30T04:43:06Z,42.805,6.029,13.2941,4.60010,2471.912,2017-9-30T06:44:30Z
2017-09-30T04:44:41Z,42.805,6.029,13.2954,4.59995,2471.912,2017-9-30T06:46:05Z
2017-09-30T04:46:16Z,42.805,6.029,13.2951,4.59995,2471.957,2017-9-30T06:47:40Z
2017-09-30T04:47:51Z,42.805,6.029,13.2946,4.59990,2471.897,2017-9-30T06:49:14Z
2017-09-30T04:49:26Z,42.805,6.029,13.2953,4.60017,2471.912,2017-9-30T06:50:49Z
2017-09-30T04:51:01Z,42.805,6.029,13.2959,4.60012,2471.897,2017-9-30T06:52:24Z
2017-09-30T04:52:36Z,42.805,6.029,13.2953,4.59998,2471.912,2017-9-30T06:53:59Z
2017-09-30T04:54:10Z,42.805,6.029,13.2946,4.59997,2471.889,2017-9-30T06:55:34Z
2017-09-30T04:55:45Z,42.805,6.029,13.2950,4.60001,2471.934,2017-9-30T06:57:09Z
2017-09-30T04:57:20Z,42.805,6.029,13.2943,4.60001,2471.852,2017-9-30T06:58:43Z
2017-09-30T04:58:55Z,42.805,6.029,13.2954,4.60009,2471.912,2017-9-30T07:00:18Z
2017-09-30T05:00:30Z,42.805,6.029,13.2953,4.59990,2471.912,2017-9-30T07:01:53Z
2017-09-30T05:02:05Z,42.805,6.029,13.2968,4.60019,2471.912,2017-9-30T07:03:28Z
2017-09-30T05:03:39Z,42.805,6.029,13.2968,4.60023,2471.912,2017-9-30T07:05:03Z
2017-09-30T05:05:14Z,42.805,6.029,13.2975,4.60031,2471.889,2017-9-30T07:06:38Z
2017-09-30T05:06:49Z,42.805,6.029,13.2954,4.60032,2471.866,2017-9-30T07:08:12Z
2017-09-30T05:08:24Z,42.805,6.029,13.2961,4.60032,2471.912,2017-9-30T07:09:47Z
2017-09-30T05:09:59Z,42.805,6.029,13.2955,4.60038,2471.912,2017-9-30T07:11:22Z
2017-09-30T05:11:34Z,42.805,6.029,13.2964,4.60051,2471.912,2017-9-30T07:12:57Z
2017-09-30T05:13:08Z,42.805,6.029,13.2978,4.60055,2471.919,2017-9-30T07:14:32Z
2017-09-30T05:14:43Z,42.805,6.029,13.2977,4.60057,2471.889,2017-9-30T07:16:07Z
2017-09-30T05:16:18Z,42.805,6.029,13.2975,4.60046,2471.889,2017-9-30T07:17:41Z
2017-09-30T05:17:53Z,42.805,6.029,13.2959,4.60046,2471.912,2017-9-30T07:19:16Z
2017-09-30T05:19:28Z,42.805,6.029,13.2986,4.60036,2471.912,2017-9-30T07:20:51Z
2017-09-30T05:21:03Z,42.805,6.029,13.2982,4.60052,2471.866,2017-9-30T07:22:26Z
2017-09-30T05:22:37Z,42.805,6.029,13.2964,4.60035,2471.889,2017-9-30T07:24:01Z
2017-09-30T05:24:12Z,42.805,6.029,13.2975,4.60042,2471.889,2017-9-30T07:25:36Z
2017-09-30T05:25:47Z,42.805,6.029,13.2969,4.60049,2471.889,2017-9-30T07:27:10Z
2017-09-30T05:27:22Z,42.805,6.029,13.2961,4.60038,2471.889,2017-9-30T07:28:45Z
2017-09-30T05:28:57Z,42.805,6.029,13.2968,4.60033,2471.912,2017-9-30T07:30:20Z
2017-09-30T05:30:32Z,42.805,6.029,13.2977,4.60040,2471.874,2017-9-30T07:31:55Z
2017-09-30T05:32:06Z,42.805,6.029,13.2978,4.60046,2471.912,2017-9-30T07:33:30Z
2017-09-30T05:33:41Z,42.805,6.029,13.2967,4.60079,2471.889,2017-9-30T07:35:05Z
2017-09-30T05:35:16Z,42.805,6.029,13.2955,4.60063,2471.889,2017-9-30T07:36:39Z
2017-09-30T05:36:51Z,42.805,6.029,13.2954,4.60059,2471.912,2017-9-30T07:38:14Z
2017-09-30T05:38:26Z,42.805,6.029,13.2965,4.60036,2471.889,2017-9-30T07:39:49Z
2017-09-30T05:40:01Z,42.805,6.029,13.2977,4.60042,2471.889,2017-9-30T07:41:24Z
2017-09-30T05:41:35Z,42.805,6.029,13.2957,4.60048,2471.874,2017-9-30T07:42:59Z
2017-09-30T05:43:10Z,42.805,6.029,13.2972,4.60023,2471.897,2017-9-30T07:44:34Z
2017-09-30T05:44:45Z,42.805,6.029,13.2958,4.60022,2471.912,2017-9-30T07:46:08Z
2017-09-30T05:46:20Z,42.805,6.029,13.2963,4.60033,2471.889,2017-9-30T07:47:43Z
2017-09-30T05:47:55Z,42.805,6.029,13.2986,4.60002,2471.949,2017-9-30T07:49:18Z
2017-09-30T05:49:30Z,42.805,6.029,13.2973,4.60060,2471.852,2017-9-30T07:50:53Z
2017-09-30T05:51:04Z,42.805,6.029,13.2979,4.60074,2471.889,2017-9-30T07:52:28Z
2017-09-30T05:52:39Z,42.805,6.029,13.2984,4.60055,2471.897,2017-9-30T07:54:03Z
2017-09-30T05:54:14Z,42.805,6.029,13.2982,4.60019,2471.912,2017-9-30T07:55:37Z
2017-09-30T05:55:49Z,42.805,6.029,13.2991,4.60009,2471.889,2017-9-30T07:57:12Z
2017-09-30T05:57:24Z,42.805,6.029,13.3007,4.60017,2471.889,2017-9-30T07:58:47Z
2017-09-30T05:58:59Z,42.805,6.029,13.2988,4.60028,2471.889,2017-9-30T08:00:22Z
2017-09-30T06:00:33Z,42.805,6.029,13.2971,4.60003,2471.889,2017-9-30T08:01:57Z
2017-09-30T06:02:08Z,42.805,6.029,13.2973,4.60021,2471.889,2017-9-30T08:03:32Z
2017-09-30T06:03:43Z,42.805,6.029,13.2985,4.60017,2471.889,2017-9-30T08:05:06Z
2017-09-30T06:05:18Z,42.805,6.029,13.2990,4.60012,2471.889,2017-9-30T08:06:41Z
2017-09-30T06:06:53Z,42.805,6.029,13.2986,4.60018,2471.912,2017-9-30T08:08:16Z
2017-09-30T06:08:28Z,42.805,6.029,13.2978,4.60027,2471.881,2017-9-30T08:09:51Z
2017-09-30T06:10:02Z,42.805,6.029,13.2975,4.60056,2471.912,2017-9-30T08:11:26Z
2017-09-30T06:11:37Z,42.805,6.029,13.2979,4.60058,2471.874,2017-9-30T08:13:01Z
2017-09-30T06:13:12Z,42.805,6.029,13.2981,4.60003,2471.897,2017-9-30T08:14:35Z
2017-09-30T06:14:47Z,42.805,6.029,13.2986,4.60012,2471.866,2017-9-30T08:16:10Z
2017-09-30T06:16:22Z,42.805,6.029,13.2995,4.60019,2471.889,2017-9-30T08:17:45Z
2017-09-30T06:17:57Z,42.805,6.029,13.2993,4.60000,2471.866,2017-9-30T08:19:20Z
2017-09-30T06:19:31Z,42.805,6.029,13.3008,4.59979,2471.866,2017-9-30T08:20:55Z
2017-09-30T06:21:06Z,42.805,6.029,13.3004,4.59992,2471.889,2017-9-30T08:22:30Z
2017-09-30T06:22:41Z,42.805,6.029,13.2975,4.59987,2471.912,2017-9-30T08:24:04Z
2017-09-30T06:24:16Z,42.805,6.029,13.2990,4.59984,2471.874,2017-9-30T08:25:39Z
2017-09-30T06:25:51Z,42.805,6.029,13.2964,4.59977,2471.904,2017-9-30T08:27:14Z
2017-09-30T06:27:26Z,42.805,6.029,13.2958,4.59991,2471.912,2017-9-30T08:28:49Z
2017-09-30T06:29:00Z,42.805,6.029,13.2964,4.59993,2471.852,2017-9-30T08:30:24Z
2017-09-30T06:30:35Z,42.805,6.029,13.2963,4.60001,2471.874,2017-9-30T08:31:59Z
2017-09-30T06:32:10Z,42.805,6.029,13.2968,4.60003,2471.889,2017-9-30T08:33:34Z
2017-09-30T06:33:45Z,42.805,6.029,13.2970,4.59986,2471.866,2017-9-30T08:35:08Z
2017-09-30T06:35:20Z,42.805,6.029,13.2950,4.59990,2471.874,2017-9-30T08:36:43Z
2017-09-30T06:36:55Z,42.805,6.029,13.2950,4.59986,2471.912,2017-9-30T08:38:18Z
2017-09-30T06:38:29Z,42.805,6.029,13.2955,4.59981,2471.852,2017-9-30T08:39:53Z
2017-09-30T06:40:04Z,42.805,6.029,13.2954,4.59985,2471.874,2017-9-30T08:41:28Z
2017-09-30T06:41:39Z,42.805,6.029,13.2983,4.59989,2471.874,2017-9-30T08:43:03Z
2017-09-30T06:43:14Z,42.805,6.029,13.2951,4.59983,2471.866,2017-9-30T08:44:37Z
2017-09-30T06:44:49Z,42.805,6.029,13.2962,4.59990,2471.912,2017-9-30T08:46:12Z
2017-09-30T06:46:24Z,42.805,6.029,13.2967,4.59987,2471.844,2017-9-30T08:47:47Z
2017-09-30T06:47:59Z,42.805,6.029,13.2964,4.59978,2471.852,2017-9-30T08:49:22Z
2017-09-30T06:49:33Z,42.805,6.029,13.2986,4.59986,2471.874,2017-9-30T08:50:57Z
2017-09-30T06:51:08Z,42.805,6.029,13.2969,4.59984,2471.866,2017-9-30T08:52:32Z
2017-09-30T06:52:43Z,42.805,6.029,13.2952,4.59987,2471.866,2017-9-30T08:54:06Z
2017-09-30T06:54:18Z,42.805,6.029,13.2961,4.59994,2471.874,2017-9-30T08:55:41Z
2017-09-30T06:55:53Z,42.805,6.029,13.2959,4.59981,2471.866,2017-9-30T08:57:16Z
2017-09-30T06:57:28Z,42.805,6.029,13.2964,4.59987,2471.852,2017-9-30T08:58:51Z
2017-09-30T06:59:02Z,42.805,6.029,13.2968,4.59982,2471.874,2017-9-30T09:00:26Z
2017-09-30T07:00:37Z,42.805,6.029,13.2966,4.59978,2471.874,2017-9-30T09:02:01Z
2017-09-30T07:02:12Z,42.805,6.029,13.2977,4.59984,2471.866,2017-9-30T09:03:35Z
2017-09-30T07:03:47Z,42.805,6.029,13.2961,4.59997,2471.866,2017-9-30T09:05:10Z
2017-09-30T07:05:22Z,42.805,6.029,13.2963,4.59984,2471.852,2017-9-30T09:06:45Z
2017-09-30T07:06:57Z,42.805,6.029,13.2957,4.59982,2471.889,2017-9-30T09:08:20Z
2017-09-30T07:08:31Z,42.805,6.029,13.2980,4.59980,2471.874,2017-9-30T09:09:55Z
2017-09-30T07:10:06Z,42.805,6.029,13.2963,4.59990,2471.866,2017-9-30T09:11:30Z
2017-09-30T07:11:41Z,42.805,6.029,13.2962,4.59998,2471.889,2017-9-30T09:13:04Z
2017-09-30T07:13:16Z,42.805,6.029,13.2962,4.59989,2471.852,2017-9-30T09:14:39Z
2017-09-30T07:14:51Z,42.805,6.029,13.2977,4.59982,2471.866,2017-9-30T09:16:14Z
2017-09-30T07:16:26Z,42.805,6.029,13.2965,4.59990,2471.889,2017-9-30T09:17:49Z
2017-09-30T07:18:00Z,42.805,6.029,13.2975,4.59984,2471.866,2017-9-30T09:19:24Z
2017-09-30T07:19:35Z,42.805,6.029,13.2966,4.60001,2471.889,2017-9-30T09:20:59Z
2017-09-30T07:21:10Z,42.805,6.029,13.2955,4.59995,2471.866,2017-9-30T09:22:33Z
2017-09-30T07:22:45Z,42.805,6.029,13.2969,4.59995,2471.866,2017-9-30T09:24:08Z
2017-09-30T07:24:20Z,42.805,6.029,13.2968,4.59983,2471.844,2017-9-30T09:25:43Z
2017-09-30T07:25:55Z,42.805,6.029,13.2971,4.59995,2471.866,2017-9-30T09:27:18Z
2017-09-30T07:27:29Z,42.805,6.029,13.2974,4.59984,2471.889,2017-9-30T09:28:53Z
2017-09-30T07:29:04Z,42.805,6.029,13.2978,4.59992,2471.866,2017-9-30T09:30:28Z
2017-09-30T07:30:39Z,42.805,6.029,13.2985,4.59986,2471.852,2017-9-30T09:32:02Z
2017-09-30T07:32:14Z,42.805,6.029,13.2975,4.59992,2471.852,2017-9-30T09:33:37Z
2017-09-30T07:33:49Z,42.805,6.029,13.2979,4.59997,2471.866,2017-9-30T09:35:12Z
2017-09-30T07:35:24Z,42.805,6.029,13.2978,4.59989,2471.889,2017-9-30T09:36:47Z
2017-09-30T07:36:58Z,42.805,6.029,13.2980,4.59991,2471.866,2017-9-30T09:38:22Z
2017-09-30T07:38:33Z,42.805,6.029,13.2982,4.59995,2471.844,2017-9-30T09:39:57Z
2017-09-30T07:40:08Z,42.805,6.029,13.2971,4.59995,2471.852,2017-9-30T09:41:31Z
2017-09-30T07:41:43Z,42.805,6.029,13.2968,4.59988,2471.829,2017-9-30T09:43:06Z
2017-09-30T07:43:18Z,42.805,6.029,13.2976,4.59984,2471.844,2017-9-30T09:44:41Z
2017-09-30T07:44:53Z,42.805,6.029,13.2980,4.59987,2471.844,2017-9-30T09:46:16Z
2017-09-30T07:46:27Z,42.805,6.029,13.2976,4.59984,2471.912,2017-9-30T09:47:51Z
2017-09-30T07:48:02Z,42.805,6.029,13.2970,4.59980,2471.866,2017-9-30T09:49:26Z
2017-09-30T07:49:37Z,42.805,6.029,13.2967,4.59983,2471.889,2017-9-30T09:51:00Z